GW7208 Weather Reports


Display with metric or nautical units.
time (UTC)temp
F
wind
direction
speed
MPH
gust
MPH
rain 1hr
in
rain 24hr
in
rain mn
in
humidity
%
barometer
mb
20260510213017 72 49 3.0 7.0 0.01 0.00 0.01 65 1013.8
20260510212517 73 48 3.0 6.0 0.01 0.00 0.01 61 1013.5
20260510212017 74 39 3.0 6.0 0.01 0.00 0.01 59 1013.3
20260510211518 74 91 1.0 2.0 0.00 0.00 0.01 60 1012.9
20260510211017 75 66 1.0 3.0 0.00 0.00 0.00 58 1012.7
20260510210517 75 53 2.0 3.0 0.00 0.00 0.00 56 1012.5
20260510210017 76 44 1.0 3.0 0.00 0.00 0.00 55 1012.5
20260510205517 76 51 2.0 3.0 0.00 0.00 0.00 55 1012.5
20260510205017 77 73 1.0 3.0 0.00 0.00 0.00 54 1012.4
20260510204521 78 83 0.0 2.0 0.00 0.00 0.00 52 1012.4
20260510204017 79 77 2.0 4.0 0.00 0.00 0.00 47 1012.5
20260510203519 79 174 0.0 2.0 0.00 0.00 0.00 48 1012.4
20260510203018 80 219 2.0 6.0 0.00 0.00 0.00 48 1012.4
20260510202517 80 297 0.0 2.0 0.00 0.00 0.00 46 1012.3
20260510202017 79 0 0.0 0.0 0.00 0.00 0.00 47 1012.3
20260510201517 79 194 1.0 3.0 0.00 0.00 0.00 47 1012.2
20260510201017 79 207 3.0 6.0 0.00 0.00 0.00 47 1012.3
20260510200517 79 195 3.0 6.0 0.00 0.00 0.00 47 1012.4
20260510200017 79 238 2.0 4.0 0.00 0.00 0.00 47 1012.4
20260510195518 80 266 4.0 8.0 0.00 0.00 0.00 47 1012.5
20260510195017 80 173 1.0 2.0 0.00 0.00 0.00 44 1012.5
20260510194517 80 255 1.0 3.0 0.00 0.00 0.00 45 1012.6
20260510194018 79 294 2.0 3.0 0.00 0.00 0.00 45 1012.6
20260510193517 78 245 3.0 5.0 0.00 0.00 0.00 46 1012.7
20260510193018 78 216 1.0 2.0 0.00 0.00 0.00 47 1012.7
20260510192517 78 146 1.0 2.0 0.00 0.00 0.00 47 1012.7
20260510192017 77 96 1.0 2.0 0.00 0.00 0.00 47 1012.8
20260510191517 77 48 2.0 3.0 0.00 0.00 0.00 47 1012.8
20260510191019 78 79 1.0 2.0 0.00 0.00 0.00 47 1012.8
20260510190517 78 56 2.0 3.0 0.00 0.00 0.00 47 1012.8
20260510190018 77 50 3.0 4.0 0.00 0.00 0.00 48 1012.8
20260510185518 77 57 1.0 2.0 0.00 0.00 0.00 48 1012.7
20260510185018 78 44 2.0 5.0 0.00 0.00 0.00 48 1012.7
20260510184517 78 66 1.0 3.0 0.00 0.00 0.00 48 1012.8
20260510183538 78 64 2.0 3.0 0.00 0.00 0.00 49 1012.8
20260510183017 78 58 2.0 3.0 0.00 0.00 0.00 49 1012.7
20260510182518 79 54 2.0 4.0 0.00 0.00 0.00 47 1012.8
20260510182017 79 239 1.0 3.0 0.00 0.00 0.00 47 1012.8
20260510181517 79 227 2.0 6.0 0.00 0.00 0.00 47 1012.8
20260510181017 79 165 1.0 3.0 0.00 0.00 0.00 46 1012.8
20260510180517 80 217 2.0 5.0 0.00 0.00 0.00 46 1012.8
20260510180018 80 261 2.0 6.0 0.00 0.00 0.00 46 1012.8
20260510175519 80 232 0.0 2.0 0.00 0.00 0.00 47 1012.8
20260510175017 80 210 2.0 4.0 0.00 0.00 0.00 46 1012.9
20260510174517 80 42 1.0 3.0 0.00 0.00 0.00 46 1012.9
20260510174017 79 197 1.0 2.0 0.00 0.00 0.00 47 1012.8
20260510173517 79 175 4.0 6.0 0.00 0.00 0.00 47 1012.8
20260510173018 79 193 2.0 4.0 0.00 0.00 0.00 48 1012.8
20260510172518 79 177 4.0 7.0 0.00 0.00 0.00 48 1012.8
20260510172017 78 256 4.0 8.0 0.00 0.00 0.00 49 1012.9
20260510171517 78 196 4.0 8.0 0.00 0.00 0.00 50 1012.8
20260510171017 78 223 3.0 7.0 0.00 0.00 0.00 50 1012.9
20260510170517 78 195 4.0 7.0 0.00 0.00 0.00 49 1012.8
20260510170017 78 206 4.0 8.0 0.00 0.00 0.00 49 1013.0
20260510165518 77 158 3.0 5.0 0.00 0.00 0.00 51 1013.0
20260510165017 77 233 4.0 5.0 0.00 0.00 0.00 51 1013.0
20260510164517 77 208 3.0 7.0 0.00 0.00 0.00 51 1013.0
20260510164017 76 179 4.0 7.0 0.00 0.00 0.00 52 1013.0
20260510163517 76 212 4.0 5.0 0.00 0.00 0.00 51 1013.1
20260510163017 76 175 2.0 5.0 0.00 0.00 0.00 52 1013.1
20260510162517 76 163 3.0 7.0 0.00 0.00 0.00 51 1013.0
20260510162017 76 214 4.0 6.0 0.00 0.00 0.00 52 1013.0
20260510161518 74 176 2.0 5.0 0.00 0.00 0.00 54 1013.0
20260510161017 74 175 4.0 5.0 0.00 0.00 0.00 55 1013.0
20260510160517 74 190 4.0 5.0 0.00 0.00 0.00 56 1013.1
20260510160017 74 197 4.0 6.0 0.00 0.00 0.00 56 1013.1
20260510155520 73 189 2.0 6.0 0.00 0.00 0.00 56 1013.2
20260510155017 72 173 2.0 4.0 0.00 0.00 0.00 58 1013.2
20260510154518 72 185 4.0 6.0 0.00 0.00 0.00 58 1013.2
20260510154017 72 182 2.0 4.0 0.00 0.00 0.00 57 1013.2
20260510153517 71 186 3.0 4.0 0.00 0.00 0.00 60 1013.2
20260510153017 71 183 3.0 4.0 0.00 0.00 0.00 60 1013.3
20260510152517 71 172 5.0 6.0 0.00 0.00 0.00 62 1013.3
20260510152017 71 183 3.0 4.0 0.00 0.00 0.00 60 1013.5
20260510151517 70 152 1.0 4.0 0.00 0.00 0.00 62 1013.4
20260510151017 69 171 3.0 5.0 0.00 0.00 0.00 64 1013.4
20260510150517 69 171 3.0 5.0 0.00 0.00 0.00 64 1013.5
20260510150017 69 184 3.0 6.0 0.00 0.00 0.00 64 1013.6
20260510145517 68 225 0.0 1.0 0.00 0.00 0.00 66 1013.6
20260510145017 68 157 4.0 5.0 0.00 0.00 0.00 66 1013.6
20260510144517 68 143 3.0 4.0 0.00 0.00 0.00 66 1013.6
20260510144017 67 188 2.0 4.0 0.00 0.00 0.00 67 1013.6
20260510143518 66 189 0.0 1.0 0.00 0.00 0.00 68 1013.6
20260510143017 65 202 2.0 6.0 0.00 0.00 0.00 71 1013.5
20260510142518 64 153 2.0 5.0 0.00 0.00 0.00 72 1013.5
20260510142017 64 173 2.0 3.0 0.00 0.00 0.00 73 1013.5
20260510141517 63 177 4.0 5.0 0.00 0.00 0.00 73 1013.5
20260510141017 63 169 2.0 4.0 0.00 0.00 0.00 75 1013.6
20260510140517 63 162 2.0 4.0 0.00 0.00 0.00 75 1013.6
20260510140017 63 176 2.0 4.0 0.00 0.00 0.00 74 1013.5
20260510135519 63 202 2.0 3.0 0.00 0.00 0.00 74 1013.6
20260510135018 62 188 2.0 4.0 0.00 0.00 0.00 76 1013.6
20260510134517 61 174 3.0 4.0 0.00 0.00 0.00 78 1013.5
20260510134017 61 223 2.0 4.0 0.00 0.00 0.00 78 1013.5
20260510133517 60 190 2.0 4.0 0.00 0.00 0.00 79 1013.5
20260510133017 60 160 2.0 4.0 0.00 0.00 0.00 81 1013.4
20260510132517 60 212 2.0 4.0 0.00 0.00 0.00 80 1013.4
20260510132017 61 150 2.0 4.0 0.00 0.00 0.00 80 1013.5
20260510131517 61 173 2.0 3.0 0.00 0.00 0.00 78 1013.6
20260510131018 60 119 0.0 2.0 0.00 0.00 0.00 79 1013.7
20260510130518 59 201 2.0 2.0 0.00 0.00 0.00 82 1013.7
20260510130017 58 161 1.0 3.0 0.00 0.00 0.00 83 1013.7
20260510125517 58 126 0.0 2.0 0.00 0.00 0.00 84 1013.7
20260510125017 58 209 2.0 3.0 0.00 0.00 0.00 83 1013.6
20260510124517 58 227 1.0 3.0 0.00 0.00 0.00 84 1013.6
20260510124017 57 182 1.0 3.0 0.00 0.00 0.00 86 1013.5
20260510123518 57 169 2.0 5.0 0.00 0.00 0.00 86 1013.4
20260510123018 57 207 2.0 4.0 0.00 0.00 0.00 86 1013.3
20260510122517 57 164 2.0 4.0 0.00 0.00 0.00 85 1013.2
20260510122018 56 130 1.0 4.0 0.00 0.00 0.00 86 1013.2
20260510121517 56 146 1.0 2.0 0.00 0.00 0.00 88 1013.1
20260510121018 56 198 2.0 2.0 0.00 0.00 0.00 87 1013.0
20260510120517 55 0 0.0 0.0 0.00 0.00 0.00 88 1013.2
20260510120018 55 64 0.0 1.0 0.00 0.00 0.00 88 1013.2
20260510115517 55 80 0.0 1.0 0.00 0.00 0.00 89 1013.1
20260510115018 55 28 1.0 2.0 0.00 0.00 0.00 88 1013.2
20260510114517 55 0 0.0 0.0 0.00 0.00 0.00 89 1013.1
20260510114017 55 353 1.0 2.0 0.00 0.00 0.00 89 1012.9
20260510113518 55 266 1.0 2.0 0.00 0.00 0.00 89 1012.9
20260510113018 55 0 0.0 0.0 0.00 0.00 0.00 89 1012.9
20260510112517 55 22 1.0 2.0 0.00 0.00 0.00 89 1012.9
20260510112019 55 0 0.0 0.0 0.00 0.00 0.00 89 1012.8
20260510111518 54 119 0.0 1.0 0.00 0.00 0.00 89 1012.8
20260510111017 54 15 0.0 2.0 0.00 0.00 0.00 89 1012.7
20260510110517 54 11 0.0 2.0 0.00 0.00 0.00 89 1012.5
20260510110020 54 19 1.0 2.0 0.00 0.00 0.00 89 1012.6
20260510105517 54 69 0.0 2.0 0.00 0.00 0.00 89 1012.4
20260510105017 54 41 0.0 1.0 0.00 0.00 0.00 90 1012.4
20260510104517 53 21 0.0 0.0 0.00 0.00 0.00 90 1012.3
20260510104018 53 50 0.0 1.0 0.00 0.00 0.00 90 1012.2
20260510103517 53 9 0.0 2.0 0.00 0.00 0.00 90 1012.2
20260510103017 53 0 1.0 2.0 0.00 0.00 0.00 91 1012.1
20260510102517 53 3 1.0 2.0 0.00 0.00 0.00 91 1012.1
20260510102018 53 127 0.0 1.0 0.00 0.00 0.00 91 1012.1
20260510101520 53 7 1.0 2.0 0.00 0.00 0.00 91 1012.2
20260510101017 53 0 0.0 0.0 0.00 0.00 0.00 91 1012.1
20260510100518 53 357 0.0 1.0 0.00 0.00 0.00 91 1012.1
20260510100017 52 10 0.0 2.0 0.00 0.00 0.00 91 1012.1
20260510095517 52 339 0.0 1.0 0.00 0.00 0.00 91 1012.1
20260510095017 52 7 1.0 2.0 0.00 0.00 0.00 91 1012.1
20260510094517 52 344 1.0 3.0 0.00 0.00 0.00 91 1012.1
20260510094018 52 7 1.0 2.0 0.00 0.00 0.00 91 1012.1
20260510093518 52 351 1.0 2.0 0.00 0.00 0.00 91 1011.9
20260510093018 52 15 0.0 1.0 0.00 0.00 0.00 91 1011.8
20260510092518 52 0 1.0 2.0 0.00 0.00 0.00 91 1011.8
20260510092017 52 9 2.0 4.0 0.00 0.00 0.00 91 1011.8
20260510091518 52 133 0.0 2.0 0.00 0.00 0.00 92 1011.8
20260510091017 52 19 2.0 3.0 0.00 0.00 0.00 91 1011.8
20260510090517 53 20 3.0 5.0 0.00 0.00 0.00 91 1011.9
20260510090017 53 29 2.0 5.0 0.00 0.00 0.00 91 1011.8
20260510085518 53 37 4.0 7.0 0.00 0.00 0.00 92 1011.8
20260510085018 53 15 1.0 3.0 0.00 0.00 0.00 92 1011.6
20260510084517 53 7 2.0 2.0 0.00 0.00 0.00 92 1011.4
20260510084017 53 10 1.0 2.0 0.00 0.00 0.00 92 1011.4
20260510083518 53 0 0.0 0.0 0.00 0.00 0.00 92 1011.3
20260510083018 53 357 0.0 1.0 0.00 0.00 0.00 92 1011.3
20260510082518 53 359 0.0 1.0 0.00 0.00 0.00 92 1011.3
20260510082017 53 292 0.0 1.0 0.00 0.00 0.00 92 1011.3
20260510081518 53 341 0.0 2.0 0.00 0.00 0.00 92 1011.2
20260510081017 54 26 0.0 1.0 0.00 0.00 0.00 92 1011.2
20260510080518 54 2 0.0 1.0 0.00 0.00 0.00 93 1011.3
20260510080018 54 338 0.0 2.0 0.00 0.00 0.00 93 1011.3
20260510075517 54 19 0.0 0.0 0.00 0.00 0.00 93 1011.2
20260510075017 53 0 0.0 0.0 0.00 0.00 0.00 93 1011.2
20260510074517 54 0 0.0 0.0 0.00 0.00 0.00 93 1011.3
20260510074017 53 5 0.0 2.0 0.00 0.00 0.00 93 1011.2
20260510073517 53 6 0.0 2.0 0.00 0.00 0.00 93 1011.1
20260510073017 53 349 0.0 1.0 0.00 0.00 0.00 93 1010.9
20260510072517 54 0 0.0 0.0 0.00 0.00 0.00 92 1010.9
20260510072017 54 12 0.0 2.0 0.00 0.00 0.00 92 1010.8
20260510071517 54 19 0.0 2.0 0.00 0.00 0.00 92 1010.8
20260510071017 54 347 0.0 1.0 0.00 0.00 0.00 92 1010.7
20260510070519 54 49 0.0 1.0 0.00 0.00 0.00 92 1010.7
20260510070017 54 153 0.0 2.0 0.00 0.00 0.00 92 1010.6
20260510065518 54 0 0.0 0.0 0.00 0.00 0.00 92 1010.6
20260510065017 54 0 0.0 0.0 0.00 0.00 0.00 92 1010.6
20260510064517 54 262 0.0 1.0 0.00 0.00 0.00 91 1010.7
20260510064018 54 0 0.0 0.0 0.00 0.00 0.00 91 1010.7
20260510063518 54 0 0.0 0.0 0.00 0.00 0.00 91 1010.7
20260510063017 54 0 0.0 0.0 0.00 0.00 0.00 91 1010.8
20260510062517 54 0 0.0 0.0 0.00 0.00 0.00 91 1010.7
20260510062018 54 348 0.0 1.0 0.00 0.00 0.00 91 1010.7
20260510061517 54 157 0.0 1.0 0.00 0.00 0.00 91 1010.8
20260510061017 54 8 0.0 1.0 0.00 0.00 0.00 90 1010.8
20260510060519 54 0 0.0 0.0 0.00 0.00 0.00 90 1010.8
20260510060017 55 0 0.0 0.0 0.00 0.00 0.00 90 1010.9
20260510055517 55 14 0.0 1.0 0.00 0.00 0.00 90 1010.9
20260510055018 55 0 0.0 0.0 0.00 0.00 0.00 90 1010.9
20260510054517 55 242 0.0 1.0 0.00 0.00 0.00 90 1011.0
20260510054017 55 0 0.0 0.0 0.00 0.00 0.00 89 1011.0
20260510053517 55 0 0.0 0.0 0.00 0.00 0.00 89 1011.1
20260510053017 55 0 0.0 0.0 0.00 0.00 0.00 89 1011.1
20260510052517 55 265 0.0 0.0 0.00 0.00 0.00 89 1011.1
20260510052018 55 0 0.0 0.0 0.00 0.00 0.00 89 1011.1
20260510051517 55 0 0.0 0.0 0.00 0.00 0.00 89 1011.2
20260510051017 56 0 0.0 0.0 0.00 0.00 0.00 89 1011.2
20260510050518 56 165 0.0 1.0 0.00 0.00 0.00 89 1011.3
20260510050018 56 146 1.0 2.0 0.00 0.00 0.00 89 1011.3
20260510045518 56 0 0.0 0.0 0.00 0.00 0.00 88 1011.3
20260510045019 56 0 0.0 0.0 0.00 0.00 0.00 88 1011.4
20260510044517 56 89 1.0 2.0 0.00 0.00 0.00 88 1011.3
20260510044017 56 172 1.0 2.0 0.00 0.00 0.00 88 1011.4
20260510043517 56 88 0.0 1.0 0.00 0.00 0.00 88 1011.4
20260510043017 56 144 0.0 2.0 0.00 0.00 0.00 87 1011.4
20260510042517 56 255 0.0 0.0 0.00 0.00 0.00 87 1011.4
20260510042017 56 183 1.0 3.0 0.00 0.00 0.00 87 1011.5
20260510041517 56 172 2.0 3.0 0.00 0.00 0.00 87 1011.5
20260510041018 57 120 1.0 2.0 0.00 0.00 0.00 87 1011.5
20260510040517 57 91 0.0 1.0 0.00 0.00 0.00 86 1011.5
20260510040017 57 0 0.0 0.0 0.00 0.00 0.01 86 1011.6
20260510035517 57 214 1.0 2.0 0.00 0.00 0.01 86 1011.5
20260510035017 57 203 0.0 2.0 0.00 0.00 0.01 86 1011.4
20260510034517 57 152 1.0 2.0 0.00 0.00 0.01 86 1011.4
20260510034018 57 157 1.0 2.0 0.00 0.00 0.01 86 1011.3
20260510033517 57 139 0.0 0.0 0.00 0.00 0.01 86 1011.3
20260510033017 57 114 0.0 1.0 0.00 0.00 0.01 86 1011.2
20260510032517 57 180 2.0 2.0 0.00 0.00 0.01 86 1011.2
20260510032017 57 0 0.0 0.0 0.00 0.00 0.01 87 1011.2
20260510031517 57 189 0.0 2.0 0.00 0.00 0.01 87 1011.0
20260510031017 57 135 0.0 3.0 0.00 0.00 0.01 87 1011.0
20260510030517 57 0 0.0 0.0 0.00 0.00 0.01 87 1010.9
20260510030018 57 90 0.0 1.0 0.00 0.00 0.01 87 1010.9
20260510025517 57 222 0.0 1.0 0.00 0.00 0.01 86 1010.9
20260510024756 57 180 1.0 2.0 0.00 0.00 0.01 86 1011.0
20260510024017 57 119 0.0 1.0 0.00 0.00 0.01 86 1011.1
20260510023517 57 280 0.0 1.0 0.00 0.00 0.01 86 1011.0
20260510023018 57 223 0.0 0.0 0.00 0.00 0.01 86 1010.9
20260510022518 57 0 0.0 0.0 0.00 0.00 0.01 85 1010.9
20260510022017 58 107 0.0 1.0 0.00 0.00 0.01 85 1010.9
20260510021517 58 162 2.0 4.0 0.00 0.00 0.01 85 1011.0
20260510021017 58 167 2.0 4.0 0.00 0.00 0.01 85 1011.0
20260510020518 58 195 0.0 1.0 0.00 0.00 0.01 85 1010.9
20260510020017 58 180 1.0 2.0 0.00 0.00 0.01 85 1010.8
20260510015517 58 158 0.0 2.0 0.00 0.00 0.01 85 1010.8
20260510015017 58 125 0.0 2.0 0.00 0.00 0.01 85 1010.8
20260510014517 58 164 2.0 3.0 0.00 0.00 0.01 85 1010.8
20260510014017 58 162 2.0 4.0 0.00 0.00 0.01 84 1010.8
20260510013517 58 171 2.0 3.0 0.00 0.00 0.01 84 1010.8
20260510013017 58 203 0.0 1.0 0.00 0.00 0.01 84 1010.8
20260510012517 58 205 1.0 2.0 0.00 0.00 0.01 84 1010.8
20260510012017 58 147 0.0 1.0 0.00 0.00 0.01 83 1010.8
20260510011517 58 62 0.0 1.0 0.00 0.00 0.01 83 1010.8
20260510011018 58 180 1.0 2.0 0.00 0.00 0.01 83 1010.7
20260510010518 58 213 2.0 3.0 0.00 0.00 0.01 83 1010.7
20260510010017 59 180 2.0 4.0 0.00 0.00 0.01 82 1010.6
20260510005517 59 187 1.0 2.0 0.00 0.00 0.01 82 1010.5
20260510005017 59 175 0.0 2.0 0.00 0.00 0.01 81 1010.5
20260510004517 59 213 1.0 3.0 0.00 0.00 0.01 81 1010.5
20260510004017 59 190 1.0 2.0 0.00 0.00 0.01 81 1010.6
20260510003517 59 228 1.0 3.0 0.00 0.00 0.01 80 1010.7
20260510003018 59 127 1.0 2.0 0.00 0.00 0.01 80 1010.6
20260510002518 59 168 2.0 4.0 0.00 0.00 0.01 80 1010.5
20260510002017 59 166 3.0 4.0 0.00 0.00 0.01 79 1010.5
20260510001518 59 176 1.0 3.0 0.00 0.00 0.01 79 1010.5
20260510001017 60 176 3.0 4.0 0.00 0.00 0.01 79 1010.5
20260510000517 60 171 3.0 4.0 0.00 0.00 0.01 79 1010.4
20260509235557 60 184 3.0 5.0 0.00 0.00 0.01 78 1010.4
20260509235017 60 201 1.0 3.0 0.00 0.00 0.01 78 1010.5
20260509234517 60 104 1.0 2.0 0.00 0.00 0.01 78 1010.5
20260509234017 60 118 0.0 2.0 0.00 0.00 0.01 77 1010.5
20260509233517 60 241 1.0 3.0 0.00 0.00 0.01 77 1010.4
20260509233017 60 171 1.0 3.0 0.00 0.00 0.01 77 1010.3
20260509232517 60 163 2.0 3.0 0.00 0.00 0.01 77 1010.3
20260509232017 60 167 2.0 4.0 0.00 0.00 0.01 78 1010.2
20260509231517 61 114 1.0 2.0 0.00 0.00 0.01 77 1010.2
20260509231017 61 200 1.0 2.0 0.00 0.00 0.01 77 1010.2
20260509230517 61 122 2.0 4.0 0.00 0.00 0.01 77 1010.2
20260509230017 61 171 3.0 5.0 0.00 0.00 0.01 76 1010.0
20260509225518 61 218 1.0 3.0 0.00 0.00 0.01 77 1010.1
20260509225020 61 186 1.0 3.0 0.00 0.00 0.01 77 1010.1
20260509224517 61 167 3.0 5.0 0.00 0.00 0.01 76 1010.2
20260509224017 61 203 1.0 3.0 0.00 0.00 0.01 75 1010.3
20260509223032 61 218 1.0 4.0 0.00 0.00 0.01 73 1010.3
20260509222517 61 150 1.0 2.0 0.02 0.00 0.02 73 1010.3
20260509222018 61 128 1.0 2.0 0.02 0.00 0.02 73 1010.3
20260509221518 61 150 0.0 1.0 0.02 0.00 0.02 73 1010.4
20260509221017 61 168 0.0 2.0 0.02 0.00 0.02 73 1010.4
20260509220517 61 140 1.0 3.0 0.02 0.00 0.02 73 1010.4
20260509220017 61 131 1.0 3.0 0.02 0.00 0.02 73 1010.3
20260509215517 61 118 2.0 3.0 0.02 0.00 0.02 74 1010.4
20260509215017 61 0 0.0 0.0 0.02 0.00 0.02 74 1010.5
20260509214517 61 204 0.0 1.0 0.01 0.00 0.02 75 1010.7
20260509214019 61 176 1.0 2.0 0.01 0.00 0.02 75 1010.7
20260509213517 61 133 1.0 2.0 0.00 0.00 0.01 74 1010.6